Location: *
(46.4000°N, 12.6667°E)
Time: 10:02:06
(UTC+00:00)

X-37B - Visible Passes

Search period start: 04 March 2021 00:00
Search period end: 14 March 2021 00:00
Orbit: 383 x 391 km, 45.0° (Epoch: 27 February)

Date Brightness Start Highest point End Pass type
(mag) Time Alt. Az. Time Alt. Az. Time Alt. Az.
10 Mar 3.2 18:41:07 10° S 18:41:13 10° S 18:41:13 10° S visible
11 Mar 3.2 19:17:47 10° SW 19:18:23 14° SW 19:18:23 14° SW visible
12 Mar 2.1 18:19:58 10° SSW 18:22:28 21° SSE 18:23:05 20° SE visible
13 Mar 1.4 18:57:23 10° WSW 18:59:58 41° SSW 18:59:58 41° SSW visible
